Time,TemperatureF,DewpointF,PressureIn,WindDirection,WindDirectionDegrees,WindSpeedMPH,WindSpeedGustMPH,Humidity,HourlyPrecipIn,Conditions,Clouds,dailyrainin,SoftwareType,DateUTC
2013-07-08 00:01:00,81.0,69.2,29.87,NNE,22,0.0,0.0,67,0.00,,,0.00,WUHU21636XXSP,2013-07-08 05:01:00,
2013-07-08 00:07:00,81.0,69.2,29.87,NE,45,0.0,0.0,67,0.00,,,0.00,WUHU21636XXSP,2013-07-08 05:07:00,
2013-07-08 00:11:00,81.0,69.2,29.87,NNE,22,0.0,5.8,67,0.00,,,0.00,WUHU21636XXSP,2013-07-08 05:11:00,
2013-07-08 00:16:00,81.0,69.2,29.87,WSW,247,0.0,5.8,67,0.00,,,0.00,WUHU21636XXSP,2013-07-08 05:16:00,
2013-07-08 00:21:00,81.0,69.2,29.87,NW,315,0.0,0.0,67,0.00,,,0.00,WUHU21636XXSP,2013-07-08 05:21:00,
2013-07-08 00:26:00,80.8,69.1,29.87,SW,225,0.0,0.0,67,0.00,,,0.00,WUHU21636XXSP,2013-07-08 05:26:00,
2013-07-08 00:31:00,80.6,68.9,29.87,West,270,0.0,0.0,67,0.00,,,0.00,WUHU21636XXSP,2013-07-08 05:31:00,
2013-07-08 00:36:00,80.8,69.5,29.87,WSW,247,0.0,8.8,68,0.00,,,0.00,WUHU21636XXSP,2013-07-08 05:36:00,
2013-07-08 00:41:00,80.6,69.3,29.87,NNW,337,0.0,8.8,68,0.00,,,0.00,WUHU21636XXSP,2013-07-08 05:41:00,
2013-07-08 00:46:00,80.6,69.3,29.87,NE,45,1.2,1.2,68,0.00,,,0.00,WUHU21636XXSP,2013-07-08 05:46:00,
2013-07-08 00:51:00,80.6,69.3,29.87,SE,135,8.4,8.4,68,0.00,,,0.00,WUHU21636XXSP,2013-07-08 05:51:00,
2013-07-08 00:56:00,80.6,69.3,29.87,SE,135,0.0,8.4,68,0.00,,,0.00,WUHU21636XXSP,2013-07-08 05:56:00,
2013-07-08 01:01:00,80.6,69.3,29.87,ESE,112,0.0,0.0,68,0.00,,,0.00,WUHU21636XXSP,2013-07-08 06:01:00,
2013-07-08 01:06:00,80.6,69.3,29.87,NW,315,0.0,0.0,68,0.00,,,0.00,WUHU21636XXSP,2013-07-08 06:06:00,
2013-07-08 01:11:00,80.6,69.3,29.87,North,0,0.0,0.0,68,0.00,,,0.00,WUHU21636XXSP,2013-07-08 06:11:00,
2013-07-08 01:16:00,80.6,69.3,29.87,NW,315,0.0,0.0,68,0.00,,,0.00,WUHU21636XXSP,2013-07-08 06:16:00,
2013-07-08 01:21:00,80.6,69.3,29.86,WSW,247,0.0,0.0,68,0.00,,,0.00,WUHU21636XXSP,2013-07-08 06:21:00,
2013-07-08 01:26:00,80.6,69.3,29.87,SE,135,0.0,4.0,68,0.00,,,0.00,WUHU21636XXSP,2013-07-08 06:26:00,
2013-07-08 01:31:00,80.6,69.3,29.87,NE,45,3.0,4.0,68,0.00,,,0.00,WUHU21636XXSP,2013-07-08 06:31:00,
2013-07-08 01:36:00,80.6,69.8,29.87,NNW,337,5.8,5.8,69,0.00,,,0.00,WUHU21636XXSP,2013-07-08 06:36:00,
2013-07-08 01:41:00,80.4,69.6,29.87,West,270,0.0,5.8,69,0.00,,,0.00,WUHU21636XXSP,2013-07-08 06:41:00,
2013-07-08 01:46:00,80.2,69.4,29.87,West,270,0.0,5.8,69,0.00,,,0.00,WUHU21636XXSP,2013-07-08 06:46:00,
2013-07-08 01:51:00,80.2,69.8,29.87,NW,315,0.0,0.0,70,0.00,,,0.00,WUHU21636XXSP,2013-07-08 06:51:00,
2013-07-08 01:56:00,80.0,69.6,29.87,ENE,67,0.0,0.0,70,0.00,,,0.00,WUHU21636XXSP,2013-07-08 06:56:00,
2013-07-08 02:01:00,80.0,69.6,29.87,NE,45,0.0,0.0,70,0.00,,,0.00,WUHU21636XXSP,2013-07-08 07:01:00,
2013-07-08 02:06:00,79.9,69.5,29.87,West,270,0.0,0.0,70,0.00,,,0.00,WUHU21636XXSP,2013-07-08 07:06:00,
2013-07-08 02:11:00,79.9,69.5,29.87,West,270,0.0,0.0,70,0.00,,,0.00,WUHU21636XXSP,2013-07-08 07:11:00,
2013-07-08 02:16:00,79.7,69.7,29.87,East,90,0.0,0.0,71,0.00,,,0.00,WUHU21636XXSP,2013-07-08 07:16:00,
2013-07-08 02:21:00,79.5,69.5,29.87,North,0,0.0,0.0,71,0.00,,,0.00,WUHU21636XXSP,2013-07-08 07:21:00,
2013-07-08 02:26:00,79.5,69.5,29.86,ENE,67,0.0,0.0,71,0.00,,,0.00,WUHU21636XXSP,2013-07-08 07:26:00,
2013-07-08 02:31:00,79.3,69.3,29.87,WSW,247,0.0,0.0,71,0.00,,,0.00,WUHU21636XXSP,2013-07-08 07:31:00,
2013-07-08 02:36:00,79.3,69.7,29.86,WSW,247,0.0,0.0,72,0.00,,,0.00,WUHU21636XXSP,2013-07-08 07:36:00,
2013-07-08 02:41:00,79.3,69.7,29.86,WSW,247,0.0,0.0,72,0.00,,,0.00,WUHU21636XXSP,2013-07-08 07:41:00,
2013-07-08 02:46:00,79.3,69.7,29.86,WSW,247,0.0,0.0,72,0.00,,,0.00,WUHU21636XXSP,2013-07-08 07:46:00,
2013-07-08 02:51:00,79.3,69.7,29.86,WSW,247,0.0,0.0,72,0.00,,,0.00,WUHU21636XXSP,2013-07-08 07:51:00,
2013-07-08 02:56:00,79.1,69.5,29.86,WSW,247,0.0,0.0,72,0.00,,,0.00,WUHU21636XXSP,2013-07-08 07:56:00,
2013-07-08 03:01:00,79.1,69.9,29.87,WSW,247,0.0,0.0,73,0.00,,,0.00,WUHU21636XXSP,2013-07-08 08:01:00,
2013-07-08 03:06:00,78.8,69.6,29.86,WSW,247,0.0,0.0,73,0.00,,,0.00,WUHU21636XXSP,2013-07-08 08:06:00,
2013-07-08 03:11:00,78.3,69.5,29.87,WSW,247,0.0,0.0,74,0.00,,,0.00,WUHU21636XXSP,2013-07-08 08:11:00,
2013-07-08 03:16:00,78.3,69.5,29.86,WSW,247,0.0,0.0,74,0.00,,,0.00,WUHU21636XXSP,2013-07-08 08:16:00,
2013-07-08 03:21:00,78.1,69.3,29.87,WSW,247,0.0,0.0,74,0.00,,,0.00,WUHU21636XXSP,2013-07-08 08:21:00,
2013-07-08 03:26:00,78.1,69.3,29.87,West,270,0.0,0.0,74,0.00,,,0.00,WUHU21636XXSP,2013-07-08 08:26:00,
2013-07-08 03:31:00,78.0,69.6,29.87,WSW,247,0.0,0.0,75,0.00,,,0.00,WUHU21636XXSP,2013-07-08 08:31:00,
2013-07-08 03:36:00,78.0,69.6,29.87,ENE,67,0.0,0.0,75,0.00,,,0.00,WUHU21636XXSP,2013-07-08 08:36:00,
2013-07-08 03:41:00,77.8,69.4,29.87,NE,45,0.0,0.0,75,0.00,,,0.00,WUHU21636XXSP,2013-07-08 08:41:00,
2013-07-08 03:46:00,77.8,69.4,29.88,NNW,337,0.0,0.0,75,0.00,,,0.00,WUHU21636XXSP,2013-07-08 08:46:00,
2013-07-08 03:51:00,77.8,69.4,29.87,NE,45,0.0,0.0,75,0.00,,,0.00,WUHU21636XXSP,2013-07-08 08:51:00,
2013-07-08 03:56:00,77.4,69.0,29.87,SW,225,0.0,0.0,75,0.00,,,0.00,WUHU21636XXSP,2013-07-08 08:56:00,
2013-07-08 04:01:00,77.4,69.0,29.87,SW,225,0.0,0.0,75,0.00,,,0.00,WUHU21636XXSP,2013-07-08 09:01:00,
2013-07-08 04:06:00,77.4,69.0,29.87,SW,225,0.0,0.0,75,0.00,,,0.00,WUHU21636XXSP,2013-07-08 09:06:00,
2013-07-08 04:11:00,77.2,69.2,29.87,SW,225,0.0,0.0,76,0.00,,,0.00,WUHU21636XXSP,2013-07-08 09:11:00,
2013-07-08 04:16:00,77.2,69.2,29.87,SW,225,0.0,0.0,76,0.00,,,0.00,WUHU21636XXSP,2013-07-08 09:16:00,
2013-07-08 04:21:00,76.9,68.9,29.89,SW,225,0.0,0.0,76,0.00,,,0.00,WUHU21636XXSP,2013-07-08 09:21:00,
2013-07-08 04:26:00,76.7,68.7,29.89,WNW,292,0.0,0.0,76,0.00,,,0.00,WUHU21636XXSP,2013-07-08 09:26:00,
2013-07-08 04:31:00,76.4,68.5,29.88,WNW,292,0.0,0.0,76,0.00,,,0.00,WUHU21636XXSP,2013-07-08 09:31:00,
2013-07-08 04:36:00,76.4,68.5,29.89,WNW,292,0.0,0.0,76,0.00,,,0.00,WUHU21636XXSP,2013-07-08 09:36:00,
2013-07-08 04:41:00,76.2,68.3,29.89,ESE,112,0.0,0.0,76,0.00,,,0.00,WUHU21636XXSP,2013-07-08 09:41:00,
2013-07-08 04:46:00,76.2,68.6,29.89,NW,315,0.0,0.0,77,0.00,,,0.00,WUHU21636XXSP,2013-07-08 09:46:00,
2013-07-08 04:51:00,76.2,68.3,29.89,WNW,292,0.0,0.0,76,0.00,,,0.00,WUHU21636XXSP,2013-07-08 09:51:00,
2013-07-08 04:56:00,76.2,68.6,29.88,WNW,292,0.0,0.0,77,0.00,,,0.00,WUHU21636XXSP,2013-07-08 09:56:00,
2013-07-08 05:01:00,76.2,68.6,29.89,WNW,292,0.0,0.0,77,0.00,,,0.00,WUHU21636XXSP,2013-07-08 10:01:00,
2013-07-08 05:06:00,76.2,68.6,29.89,WNW,292,0.0,0.0,77,0.00,,,0.00,WUHU21636XXSP,2013-07-08 10:06:00,
2013-07-08 05:11:00,76.1,68.5,29.89,WNW,292,0.0,0.0,77,0.00,,,0.00,WUHU21636XXSP,2013-07-08 10:11:00,
2013-07-08 05:16:00,76.1,68.5,29.89,West,270,0.0,0.0,77,0.00,,,0.00,WUHU21636XXSP,2013-07-08 10:16:00,
2013-07-08 05:21:00,75.9,68.3,29.89,West,270,0.0,0.0,77,0.00,,,0.00,WUHU21636XXSP,2013-07-08 10:21:00,
2013-07-08 05:26:00,75.9,68.3,29.89,WSW,247,3.4,3.4,77,0.00,,,0.00,WUHU21636XXSP,2013-07-08 10:26:00,
2013-07-08 05:31:00,75.9,68.3,29.89,NE,45,0.0,3.4,77,0.00,,,0.00,WUHU21636XXSP,2013-07-08 10:31:00,
2013-07-08 05:36:00,75.9,68.3,29.89,East,90,1.6,1.6,77,0.00,,,0.00,WUHU21636XXSP,2013-07-08 10:36:00,
2013-07-08 05:41:00,75.9,68.7,29.89,North,0,0.0,1.6,78,0.00,,,0.00,WUHU21636XXSP,2013-07-08 10:41:00,
2013-07-08 05:46:00,75.9,68.7,29.90,West,270,0.0,0.0,78,0.00,,,0.00,WUHU21636XXSP,2013-07-08 10:46:00,
2013-07-08 05:51:00,75.9,68.7,29.89,NNW,337,0.0,0.0,78,0.00,,,0.00,WUHU21636XXSP,2013-07-08 10:51:00,
2013-07-08 05:56:00,75.9,69.0,29.90,NNW,337,0.0,0.0,79,0.00,,,0.00,WUHU21636XXSP,2013-07-08 10:56:00,
2013-07-08 06:01:00,75.9,69.0,29.90,NNW,337,0.0,0.0,79,0.00,,,0.00,WUHU21636XXSP,2013-07-08 11:01:00,
2013-07-08 06:06:00,75.5,68.6,29.90,WSW,247,0.0,0.0,79,0.00,,,0.00,WUHU21636XXSP,2013-07-08 11:06:00,
2013-07-08 06:11:00,75.5,69.0,29.90,WSW,247,0.0,0.0,80,0.00,,,0.00,WUHU21636XXSP,2013-07-08 11:11:00,
2013-07-08 06:16:00,75.5,69.0,29.89,NE,45,0.0,0.0,80,0.00,,,0.00,WUHU21636XXSP,2013-07-08 11:16:00,
2013-07-08 06:21:00,75.5,69.0,29.89,NE,45,0.0,0.0,80,0.00,,,0.00,WUHU21636XXSP,2013-07-08 11:21:00,
2013-07-08 06:26:00,75.3,69.1,29.90,NE,45,0.0,0.0,81,0.00,,,0.00,WUHU21636XXSP,2013-07-08 11:26:00,
2013-07-08 06:31:00,75.3,69.1,29.90,NE,45,0.0,0.0,81,0.00,,,0.00,WUHU21636XXSP,2013-07-08 11:31:00,
2013-07-08 06:36:00,75.3,69.1,29.90,NE,45,0.0,0.0,81,0.00,,,0.00,WUHU21636XXSP,2013-07-08 11:36:00,
2013-07-08 06:41:00,75.2,69.0,29.90,NE,45,0.0,0.0,81,0.00,,,0.00,WUHU21636XXSP,2013-07-08 11:41:00,
2013-07-08 06:46:00,75.2,69.0,29.90,NE,45,0.0,0.0,81,0.00,,,0.00,WUHU21636XXSP,2013-07-08 11:46:00,
2013-07-08 06:51:00,75.2,69.0,29.91,NE,45,0.0,0.0,81,0.00,,,0.00,WUHU21636XXSP,2013-07-08 11:51:00,
2013-07-08 06:56:00,75.0,68.8,29.90,NE,45,0.0,0.0,81,0.00,,,0.00,WUHU21636XXSP,2013-07-08 11:56:00,
2013-07-08 07:01:00,75.2,69.0,29.90,NE,45,0.0,0.0,81,0.00,,,0.00,WUHU21636XXSP,2013-07-08 12:01:00,
2013-07-08 07:06:00,75.0,68.8,29.91,NE,45,0.0,0.0,81,0.00,,,0.00,WUHU21636XXSP,2013-07-08 12:06:00,
2013-07-08 07:11:00,75.2,69.0,29.90,NE,45,0.0,0.0,81,0.00,,,0.00,WUHU21636XXSP,2013-07-08 12:11:00,
2013-07-08 07:16:00,75.0,68.8,29.90,NE,45,0.0,0.0,81,0.00,,,0.00,WUHU21636XXSP,2013-07-08 12:16:00,
2013-07-08 07:21:00,75.0,68.8,29.90,NE,45,0.0,0.0,81,0.00,,,0.00,WUHU21636XXSP,2013-07-08 12:21:00,
2013-07-08 07:26:00,75.2,69.0,29.90,NW,315,0.0,0.0,81,0.00,,,0.00,WUHU21636XXSP,2013-07-08 12:26:00,
2013-07-08 07:31:00,75.2,69.0,29.90,NNW,337,0.0,0.0,81,0.00,,,0.00,WUHU21636XXSP,2013-07-08 12:31:00,
2013-07-08 07:36:00,75.2,69.0,29.90,SSW,202,0.0,0.0,81,0.00,,,0.00,WUHU21636XXSP,2013-07-08 12:36:00,
2013-07-08 07:41:00,75.3,69.1,29.91,North,0,0.0,0.0,81,0.00,,,0.00,WUHU21636XXSP,2013-07-08 12:41:00,
2013-07-08 07:46:00,75.3,68.8,29.91,ENE,67,0.0,0.0,80,0.00,,,0.00,WUHU21636XXSP,2013-07-08 12:46:00,
2013-07-08 07:51:00,75.5,69.0,29.90,ENE,67,3.0,3.0,80,0.00,,,0.00,WUHU21636XXSP,2013-07-08 12:51:00,
2013-07-08 07:56:00,75.7,69.2,29.91,East,90,0.0,3.0,80,0.00,,,0.00,WUHU21636XXSP,2013-07-08 12:56:00,
2013-07-08 08:01:00,75.9,69.0,29.91,East,90,0.0,3.0,79,0.00,,,0.00,WUHU21636XXSP,2013-07-08 13:01:00,
2013-07-08 08:06:00,76.1,69.3,29.91,East,90,0.0,0.0,79,0.00,,,0.00,WUHU21636XXSP,2013-07-08 13:06:00,
2013-07-08 08:11:00,76.1,69.3,29.91,WSW,247,0.0,0.0,79,0.00,,,0.00,WUHU21636XXSP,2013-07-08 13:11:00,
2013-07-08 08:16:00,76.1,69.3,29.92,WSW,247,0.0,0.0,79,0.00,,,0.00,WUHU21636XXSP,2013-07-08 13:16:00,
2013-07-08 08:21:00,76.1,68.9,29.92,WSW,247,0.0,0.0,78,0.00,,,0.00,WUHU21636XXSP,2013-07-08 13:21:00,
2013-07-08 08:26:00,76.2,69.0,29.92,WSW,247,0.0,0.0,78,0.00,,,0.00,WUHU21636XXSP,2013-07-08 13:26:00,
2013-07-08 08:31:00,76.2,69.0,29.93,WSW,247,0.0,0.0,78,0.00,,,0.00,WUHU21636XXSP,2013-07-08 13:31:00,
2013-07-08 08:36:00,76.2,69.0,29.92,SW,225,0.0,0.0,78,0.00,,,0.00,WUHU21636XXSP,2013-07-08 13:36:00,
2013-07-08 08:41:00,76.2,69.0,29.93,SW,225,0.0,0.0,78,0.00,,,0.00,WUHU21636XXSP,2013-07-08 13:41:00,
2013-07-08 08:46:00,76.4,69.2,29.92,WSW,247,0.0,0.0,78,0.00,,,0.00,WUHU21636XXSP,2013-07-08 13:46:00,
2013-07-08 08:51:00,76.4,69.2,29.92,WSW,247,0.0,0.0,78,0.00,,,0.00,WUHU21636XXSP,2013-07-08 13:51:00,
2013-07-08 08:56:00,76.4,69.2,29.92,WSW,247,0.0,0.0,78,0.00,,,0.00,WUHU21636XXSP,2013-07-08 13:56:00,
2013-07-08 09:01:00,76.7,69.4,29.92,SSW,202,0.0,0.0,78,0.00,,,0.00,WUHU21636XXSP,2013-07-08 14:01:00,
2013-07-08 09:06:00,77.1,69.8,29.92,WSW,247,0.0,0.0,78,0.00,,,0.00,WUHU21636XXSP,2013-07-08 14:06:00,
2013-07-08 09:07:00,77.1,69.8,29.92,WSW,247,0.0,0.0,78,0.00,,,0.00,WUHU21636XXSP,2013-07-08 14:07:00,
2013-07-08 09:12:00,77.2,69.9,29.92,West,270,0.0,0.0,78,0.00,,,0.00,WUHU21636XXSP,2013-07-08 14:12:00,
2013-07-08 09:17:00,77.2,69.9,29.92,WSW,247,0.0,0.0,78,0.00,,,0.00,WUHU21636XXSP,2013-07-08 14:17:00,
2013-07-08 09:22:00,77.4,69.8,29.93,SSW,202,0.0,0.0,77,0.00,,,0.00,WUHU21636XXSP,2013-07-08 14:22:00,
2013-07-08 09:27:00,77.4,69.8,29.92,SSE,157,0.0,0.0,77,0.00,,,0.00,WUHU21636XXSP,2013-07-08 14:27:00,
2013-07-08 09:32:00,77.8,70.2,29.93,WSW,247,0.0,0.0,77,0.00,,,0.00,WUHU21636XXSP,2013-07-08 14:32:00,
2013-07-08 09:37:00,77.8,70.2,29.93,WSW,247,0.0,0.0,77,0.00,,,0.00,WUHU21636XXSP,2013-07-08 14:37:00,
2013-07-08 09:42:00,77.8,70.2,29.93,South,180,0.0,0.0,77,0.00,,,0.00,WUHU21636XXSP,2013-07-08 14:42:00,
2013-07-08 09:47:00,78.0,70.4,29.93,South,180,0.0,0.0,77,0.00,,,0.00,WUHU21636XXSP,2013-07-08 14:47:00,
2013-07-08 09:52:00,78.0,70.4,29.93,South,180,0.0,0.0,77,0.00,,,0.00,WUHU21636XXSP,2013-07-08 14:52:00,
2013-07-08 09:57:00,78.0,70.4,29.93,South,180,0.0,0.0,77,0.00,,,0.00,WUHU21636XXSP,2013-07-08 14:57:00,
2013-07-08 10:02:00,78.0,70.4,29.94,SW,225,0.0,0.0,77,0.00,,,0.00,WUHU21636XXSP,2013-07-08 15:02:00,
2013-07-08 10:07:00,78.0,70.4,29.94,West,270,0.0,0.0,77,0.00,,,0.00,WUHU21636XXSP,2013-07-08 15:07:00,
2013-07-08 10:12:00,78.1,70.5,29.94,WSW,247,0.0,0.0,77,0.00,,,0.00,WUHU21636XXSP,2013-07-08 15:12:00,
2013-07-08 10:17:00,78.5,70.9,29.94,SE,135,0.0,0.0,77,0.00,,,0.00,WUHU21636XXSP,2013-07-08 15:17:00,
2013-07-08 10:22:00,78.8,71.1,29.94,SW,225,0.8,0.8,77,0.00,,,0.00,WUHU21636XXSP,2013-07-08 15:22:00,
2013-07-08 10:27:00,79.0,71.3,29.94,SW,225,0.0,0.8,77,0.00,,,0.00,WUHU21636XXSP,2013-07-08 15:27:00,
2013-07-08 10:32:00,79.1,71.4,29.94,SSW,202,0.0,0.0,77,0.00,,,0.00,WUHU21636XXSP,2013-07-08 15:32:00,
2013-07-08 10:37:00,79.1,71.4,29.94,SSW,202,0.0,0.0,77,0.00,,,0.00,WUHU21636XXSP,2013-07-08 15:37:00,
2013-07-08 10:42:00,79.3,71.6,29.94,SSW,202,0.0,0.0,77,0.00,,,0.00,WUHU21636XXSP,2013-07-08 15:42:00,
2013-07-08 10:47:00,79.3,71.2,29.94,SSW,202,0.0,0.0,76,0.00,,,0.00,WUHU21636XXSP,2013-07-08 15:47:00,
2013-07-08 10:52:00,79.7,71.6,29.94,SE,135,0.0,0.0,76,0.00,,,0.00,WUHU21636XXSP,2013-07-08 15:52:00,
2013-07-08 10:57:00,79.7,71.6,29.94,SE,135,0.0,0.0,76,0.00,,,0.00,WUHU21636XXSP,2013-07-08 15:57:00,
2013-07-08 11:02:00,79.9,71.8,29.94,SE,135,0.0,0.0,76,0.00,,,0.00,WUHU21636XXSP,2013-07-08 16:02:00,
2013-07-08 11:07:00,79.9,71.8,29.94,South,180,0.0,0.0,76,0.00,,,0.00,WUHU21636XXSP,2013-07-08 16:07:00,
2013-07-08 11:12:00,80.0,71.9,29.94,South,180,0.0,0.0,76,0.00,,,0.00,WUHU21636XXSP,2013-07-08 16:12:00,
2013-07-08 11:17:00,80.0,71.9,29.94,South,180,0.0,0.0,76,0.00,,,0.00,WUHU21636XXSP,2013-07-08 16:17:00,
2013-07-08 11:22:00,80.2,72.1,29.94,SSE,157,0.0,0.0,76,0.00,,,0.00,WUHU21636XXSP,2013-07-08 16:22:00,
2013-07-08 11:27:00,80.2,72.1,29.94,SSE,157,0.0,0.0,76,0.00,,,0.00,WUHU21636XXSP,2013-07-08 16:27:00,
2013-07-08 11:32:00,80.2,72.1,29.94,SW,225,3.0,3.0,76,0.00,,,0.00,WUHU21636XXSP,2013-07-08 16:32:00,
2013-07-08 11:37:00,80.2,72.1,29.94,SSW,202,0.0,3.0,76,0.00,,,0.00,WUHU21636XXSP,2013-07-08 16:37:00,
2013-07-08 11:42:00,80.4,72.3,29.94,SSW,202,0.0,3.0,76,0.00,,,0.00,WUHU21636XXSP,2013-07-08 16:42:00,
2013-07-08 11:47:00,81.0,72.5,29.94,SSW,202,0.0,0.0,75,0.00,,,0.00,WUHU21636XXSP,2013-07-08 16:47:00,
2013-07-08 11:52:00,81.6,73.1,29.94,South,180,0.0,0.0,75,0.00,,,0.00,WUHU21636XXSP,2013-07-08 16:52:00,
2013-07-08 11:58:00,81.8,72.9,29.94,South,180,0.8,0.8,74,0.00,,,0.00,WUHU21636XXSP,2013-07-08 16:58:00,
2013-07-08 12:03:00,82.1,73.2,29.94,South,180,0.0,0.8,74,0.00,,,0.00,WUHU21636XXSP,2013-07-08 17:03:00,
2013-07-08 12:08:00,82.1,73.2,29.94,SSW,202,4.4,4.4,74,0.00,,,0.00,WUHU21636XXSP,2013-07-08 17:08:00,
2013-07-08 12:13:00,82.5,73.2,29.94,SSW,202,0.0,4.4,73,0.00,,,0.00,WUHU21636XXSP,2013-07-08 17:13:00,
2013-07-08 12:18:00,82.3,73.0,29.94,SSW,202,0.8,0.8,73,0.00,,,0.00,WUHU21636XXSP,2013-07-08 17:18:00,
2013-07-08 12:23:00,82.3,73.4,29.94,SE,135,0.0,4.8,74,0.00,,,0.00,WUHU21636XXSP,2013-07-08 17:23:00,
2013-07-08 12:28:00,82.5,73.2,29.94,SW,225,0.0,4.8,73,0.00,,,0.00,WUHU21636XXSP,2013-07-08 17:28:00,
2013-07-08 12:33:00,82.5,73.2,29.94,SW,225,0.0,0.0,73,0.00,,,0.00,WUHU21636XXSP,2013-07-08 17:33:00,
2013-07-08 12:38:00,82.5,73.2,29.95,SW,225,0.0,0.0,73,0.00,,,0.00,WUHU21636XXSP,2013-07-08 17:38:00,
2013-07-08 12:43:00,82.5,73.2,29.95,SW,225,0.0,0.0,73,0.00,,,0.00,WUHU21636XXSP,2013-07-08 17:43:00,
2013-07-08 12:49:00,82.5,73.2,29.94,East,90,0.0,0.0,73,0.00,,,0.00,WUHU21636XXSP,2013-07-08 17:49:00,
2013-07-08 12:54:00,82.3,73.0,29.94,SSW,202,0.4,0.4,73,0.00,,,0.00,WUHU21636XXSP,2013-07-08 17:54:00,
2013-07-08 12:59:00,82.7,73.4,29.94,South,180,0.0,0.4,73,0.00,,,0.00,WUHU21636XXSP,2013-07-08 17:59:00,
2013-07-08 13:04:00,83.1,73.7,29.94,South,180,0.0,0.4,73,0.00,,,0.00,WUHU21636XXSP,2013-07-08 18:04:00,
2013-07-08 13:10:00,83.7,73.9,29.94,SSW,202,0.0,0.0,72,0.00,,,0.00,WUHU21636XXSP,2013-07-08 18:10:00,
2013-07-08 13:15:00,83.8,73.6,29.94,South,180,1.6,1.6,71,0.00,,,0.00,WUHU21636XXSP,2013-07-08 18:15:00,
2013-07-08 13:20:00,83.8,74.0,29.94,NNE,22,0.0,1.6,72,0.00,,,0.00,WUHU21636XXSP,2013-07-08 18:20:00,
2013-07-08 13:25:00,84.4,74.6,29.94,WSW,247,0.0,0.0,72,0.00,,,0.00,WUHU21636XXSP,2013-07-08 18:25:00,
2013-07-08 13:30:00,84.7,74.5,29.94,SSW,202,0.0,0.0,71,0.00,,,0.00,WUHU21636XXSP,2013-07-08 18:30:00,
2013-07-08 13:35:00,85.4,74.7,29.94,SSE,157,0.0,0.0,70,0.00,,,0.00,WUHU21636XXSP,2013-07-08 18:35:00,
2013-07-08 13:40:00,85.9,74.8,29.93,SSE,157,0.0,0.0,69,0.00,,,0.00,WUHU21636XXSP,2013-07-08 18:40:00,
2013-07-08 13:45:00,86.3,74.8,29.93,SSE,157,0.0,0.0,68,0.00,,,0.00,WUHU21636XXSP,2013-07-08 18:45:00,
2013-07-08 13:50:00,86.8,74.8,29.93,ENE,67,0.0,0.0,67,0.00,,,0.00,WUHU21636XXSP,2013-07-08 18:50:00,
2013-07-08 13:55:00,87.3,75.2,29.93,ENE,67,0.0,0.0,67,0.00,,,0.00,WUHU21636XXSP,2013-07-08 18:55:00,
2013-07-08 14:00:00,87.5,74.1,29.93,ENE,67,0.0,0.0,64,0.00,,,0.00,WUHU21636XXSP,2013-07-08 19:00:00,
2013-07-08 14:05:00,87.8,74.4,29.93,WSW,247,0.0,0.0,64,0.00,,,0.00,WUHU21636XXSP,2013-07-08 19:05:00,
2013-07-08 14:11:00,88.2,74.3,29.93,ENE,67,1.6,1.6,63,0.00,,,0.00,WUHU21636XXSP,2013-07-08 19:11:00,
2013-07-08 14:16:00,88.5,74.6,29.93,SE,135,0.0,1.6,63,0.00,,,0.00,WUHU21636XXSP,2013-07-08 19:16:00,
2013-07-08 14:22:00,89.1,75.2,29.93,South,180,0.0,0.0,63,0.00,,,0.00,WUHU21636XXSP,2013-07-08 19:22:00,
2013-07-08 14:27:00,89.5,75.0,29.92,SSE,157,0.0,4.0,62,0.00,,,0.00,WUHU21636XXSP,2013-07-08 19:27:00,
2013-07-08 14:32:00,89.7,75.2,29.92,SSW,202,0.0,4.0,62,0.00,,,0.00,WUHU21636XXSP,2013-07-08 19:32:00,
2013-07-08 14:37:00,89.7,75.2,29.93,SW,225,0.0,0.0,62,0.00,,,0.00,WUHU21636XXSP,2013-07-08 19:37:00,
2013-07-08 14:42:00,90.1,75.6,29.93,SSE,157,0.0,0.0,62,0.00,,,0.00,WUHU21636XXSP,2013-07-08 19:42:00,
2013-07-08 14:48:00,90.4,75.4,29.93,SW,225,0.0,4.8,61,0.00,,,0.00,WUHU21636XXSP,2013-07-08 19:48:00,
2013-07-08 14:53:00,90.3,74.8,29.93,SW,225,2.6,4.8,60,0.00,,,0.00,WUHU21636XXSP,2013-07-08 19:53:00,
2013-07-08 14:58:00,90.3,75.3,29.93,SW,225,0.0,2.6,61,0.00,,,0.00,WUHU21636XXSP,2013-07-08 19:58:00,
2013-07-08 15:03:00,90.4,75.9,29.93,South,180,0.0,0.4,62,0.00,,,0.00,WUHU21636XXSP,2013-07-08 20:03:00,
2013-07-08 15:08:00,91.3,75.8,29.93,ESE,112,0.0,0.4,60,0.00,,,0.00,WUHU21636XXSP,2013-07-08 20:08:00,
2013-07-08 15:13:00,91.6,75.0,29.93,SE,135,0.0,2.6,58,0.00,,,0.00,WUHU21636XXSP,2013-07-08 20:13:00,
2013-07-08 15:18:00,91.6,76.0,29.93,SSE,157,0.0,2.6,60,0.00,,,0.00,WUHU21636XXSP,2013-07-08 20:18:00,
2013-07-08 15:23:00,91.3,74.3,29.93,ESE,112,0.0,1.2,57,0.00,,,0.00,WUHU21636XXSP,2013-07-08 20:23:00,
2013-07-08 15:29:00,91.3,74.3,29.93,SSE,157,0.0,1.2,57,0.00,,,0.00,WUHU21636XXSP,2013-07-08 20:29:00,
2013-07-08 15:34:00,91.2,73.6,29.93,East,90,0.0,0.0,56,0.00,,,0.00,WUHU21636XXSP,2013-07-08 20:34:00,
2013-07-08 15:39:00,91.3,74.8,29.93,ESE,112,0.0,0.0,58,0.00,,,0.00,WUHU21636XXSP,2013-07-08 20:39:00,
2013-07-08 15:44:00,91.3,74.3,29.93,West,270,0.0,0.0,57,0.00,,,0.00,WUHU21636XXSP,2013-07-08 20:44:00,
2013-07-08 15:50:00,91.8,74.7,29.93,NE,45,0.0,0.0,57,0.00,,,0.00,WUHU21636XXSP,2013-07-08 20:50:00,
2013-07-08 15:55:00,92.0,75.4,29.93,ENE,67,0.0,0.0,58,0.00,,,0.00,WUHU21636XXSP,2013-07-08 20:55:00,
2013-07-08 16:00:00,92.0,74.9,29.93,ENE,67,0.0,4.0,57,0.00,,,0.00,WUHU21636XXSP,2013-07-08 21:00:00,
2013-07-08 16:05:00,91.6,75.5,29.93,ESE,112,1.2,4.0,59,0.00,,,0.00,WUHU21636XXSP,2013-07-08 21:05:00,
2013-07-08 16:10:00,91.2,74.2,29.93,WSW,247,0.0,1.2,57,0.00,,,0.00,WUHU21636XXSP,2013-07-08 21:10:00,
2013-07-08 16:16:00,91.8,75.2,29.93,East,90,0.0,1.6,58,0.00,,,0.00,WUHU21636XXSP,2013-07-08 21:16:00,
2013-07-08 16:21:00,91.8,75.2,29.93,ESE,112,0.0,2.2,58,0.00,,,0.00,WUHU21636XXSP,2013-07-08 21:21:00,
2013-07-08 16:26:00,92.3,76.2,29.93,ESE,112,0.0,2.2,59,0.00,,,0.00,WUHU21636XXSP,2013-07-08 21:26:00,
2013-07-08 16:31:00,92.3,75.2,29.93,SSW,202,0.0,0.0,57,0.00,,,0.00,WUHU21636XXSP,2013-07-08 21:31:00,
2013-07-08 16:37:00,92.3,75.2,29.93,SSW,202,0.0,0.0,57,0.00,,,0.00,WUHU21636XXSP,2013-07-08 21:37:00,
2013-07-08 16:42:00,92.3,76.2,29.93,South,180,0.0,6.2,59,0.00,,,0.00,WUHU21636XXSP,2013-07-08 21:42:00,
2013-07-08 16:47:00,92.5,76.4,29.94,SSW,202,0.0,6.2,59,0.00,,,0.00,WUHU21636XXSP,2013-07-08 21:47:00,
2013-07-08 16:52:00,92.5,75.9,29.93,South,180,0.0,0.0,58,0.00,,,0.00,WUHU21636XXSP,2013-07-08 21:52:00,
2013-07-08 16:57:00,92.7,76.1,29.93,South,180,0.0,0.0,58,0.00,,,0.00,WUHU21636XXSP,2013-07-08 21:57:00,
2013-07-08 17:02:00,92.9,75.2,29.93,SE,135,0.0,0.0,56,0.00,,,0.00,WUHU21636XXSP,2013-07-08 22:02:00,
2013-07-08 17:07:00,92.9,76.3,29.93,SSE,157,0.0,0.0,58,0.00,,,0.00,WUHU21636XXSP,2013-07-08 22:07:00,
2013-07-08 17:13:00,92.2,75.6,29.93,SSE,157,0.0,0.0,58,0.00,,,0.00,WUHU21636XXSP,2013-07-08 22:13:00,
2013-07-08 17:18:00,92.0,75.4,29.93,SSE,157,0.0,0.0,58,0.00,,,0.00,WUHU21636XXSP,2013-07-08 22:18:00,
2013-07-08 17:23:00,91.8,75.7,29.93,SSE,157,0.0,0.0,59,0.00,,,0.00,WUHU21636XXSP,2013-07-08 22:23:00,
2013-07-08 17:28:00,91.3,75.3,29.93,SSE,157,0.0,0.0,59,0.00,,,0.00,WUHU21636XXSP,2013-07-08 22:28:00,
2013-07-08 17:34:00,91.2,75.7,29.93,SSE,157,0.0,0.0,60,0.00,,,0.00,WUHU21636XXSP,2013-07-08 22:34:00,
2013-07-08 17:39:00,91.0,76.0,29.93,SSE,157,0.0,0.0,61,0.00,,,0.00,WUHU21636XXSP,2013-07-08 22:39:00,
2013-07-08 17:45:00,90.6,75.1,29.92,SSE,157,0.0,0.0,60,0.00,,,0.00,WUHU21636XXSP,2013-07-08 22:45:00,
2013-07-08 17:50:00,90.4,75.4,29.92,SSE,157,0.0,0.0,61,0.00,,,0.00,WUHU21636XXSP,2013-07-08 22:50:00,
2013-07-08 17:55:00,90.1,75.1,29.92,SSE,157,0.0,0.0,61,0.00,,,0.00,WUHU21636XXSP,2013-07-08 22:55:00,
2013-07-08 18:00:00,90.3,75.8,29.92,SSE,157,0.0,0.0,62,0.00,,,0.00,WUHU21636XXSP,2013-07-08 23:00:00,
2013-07-08 18:05:00,89.7,74.7,29.93,SSE,157,0.0,0.0,61,0.00,,,0.00,WUHU21636XXSP,2013-07-08 23:05:00,
2013-07-08 18:11:00,89.7,75.2,29.92,SSE,157,0.0,0.0,62,0.00,,,0.00,WUHU21636XXSP,2013-07-08 23:11:00,
2013-07-08 18:16:00,89.7,75.2,29.93,SSE,157,0.0,0.0,62,0.00,,,0.00,WUHU21636XXSP,2013-07-08 23:16:00,
2013-07-08 18:21:00,89.7,75.7,29.92,SSE,157,0.0,0.0,63,0.00,,,0.00,WUHU21636XXSP,2013-07-08 23:21:00,
2013-07-08 18:27:00,89.1,75.2,29.93,SSE,157,0.0,0.0,63,0.00,,,0.00,WUHU21636XXSP,2013-07-08 23:27:00,
2013-07-08 18:32:00,88.7,74.8,29.93,SSE,157,0.0,0.0,63,0.00,,,0.00,WUHU21636XXSP,2013-07-08 23:32:00,
2013-07-08 18:37:00,88.4,74.5,29.92,SSE,157,0.0,0.0,63,0.00,,,0.00,WUHU21636XXSP,2013-07-08 23:37:00,
2013-07-08 18:42:00,88.0,74.1,29.93,SSE,157,0.0,0.0,63,0.00,,,0.00,WUHU21636XXSP,2013-07-08 23:42:00,
2013-07-08 18:48:00,86.8,73.9,29.93,SSE,157,0.0,0.0,65,0.00,,,0.00,WUHU21636XXSP,2013-07-08 23:48:00,
2013-07-08 18:53:00,86.5,73.6,29.93,SSE,157,0.0,0.0,65,0.00,,,0.00,WUHU21636XXSP,2013-07-08 23:53:00,
2013-07-08 18:59:00,86.1,73.7,29.93,SSE,157,0.0,0.0,66,0.00,,,0.00,WUHU21636XXSP,2013-07-08 23:59:00,
2013-07-08 19:04:00,85.9,73.5,29.94,SSE,157,0.0,0.0,66,0.00,,,0.00,WUHU21636XXSP,2013-07-09 00:04:00,
2013-07-08 19:09:00,85.9,73.9,29.94,SSE,157,0.0,0.0,67,0.00,,,0.00,WUHU21636XXSP,2013-07-09 00:09:00,
2013-07-08 19:14:00,85.6,74.1,29.94,SSE,157,0.0,0.0,68,0.00,,,0.00,WUHU21636XXSP,2013-07-09 00:14:00,
2013-07-08 19:20:00,85.6,74.1,29.94,SSE,157,0.0,0.0,68,0.00,,,0.00,WUHU21636XXSP,2013-07-09 00:20:00,
2013-07-08 19:25:00,85.4,74.3,29.94,SSE,157,0.0,0.0,69,0.00,,,0.00,WUHU21636XXSP,2013-07-09 00:25:00,
2013-07-08 19:30:00,85.4,74.3,29.94,SSE,157,0.0,0.0,69,0.00,,,0.00,WUHU21636XXSP,2013-07-09 00:30:00,
2013-07-08 19:35:00,85.2,74.1,29.94,SSE,157,0.0,0.0,69,0.00,,,0.00,WUHU21636XXSP,2013-07-09 00:35:00,
2013-07-08 19:41:00,84.9,73.9,29.94,SSE,157,0.0,0.0,69,0.00,,,0.00,WUHU21636XXSP,2013-07-09 00:41:00,
2013-07-08 19:46:00,84.9,73.9,29.94,SSE,157,0.0,0.0,69,0.00,,,0.00,WUHU21636XXSP,2013-07-09 00:46:00,
2013-07-08 19:51:00,84.7,73.7,29.94,SSE,157,0.0,0.0,69,0.00,,,0.00,WUHU21636XXSP,2013-07-09 00:51:00,
2013-07-08 19:56:00,84.6,73.6,29.93,SSE,157,0.0,0.0,69,0.00,,,0.00,WUHU21636XXSP,2013-07-09 00:56:00,
2013-07-08 20:02:00,84.4,73.8,29.94,SSE,157,0.0,0.0,70,0.00,,,0.00,WUHU21636XXSP,2013-07-09 01:02:00,
2013-07-08 20:07:00,84.2,73.6,29.94,SSE,157,0.0,0.0,70,0.00,,,0.00,WUHU21636XXSP,2013-07-09 01:07:00,
2013-07-08 20:12:00,83.8,73.2,29.94,SSE,157,0.0,0.0,70,0.00,,,0.00,WUHU21636XXSP,2013-07-09 01:12:00,
2013-07-08 20:18:00,83.7,73.1,29.94,SSE,157,0.0,0.0,70,0.00,,,0.00,WUHU21636XXSP,2013-07-09 01:18:00,
2013-07-08 20:23:00,83.3,73.1,29.94,SSE,157,0.0,0.0,71,0.00,,,0.00,WUHU21636XXSP,2013-07-09 01:23:00,
2013-07-08 20:28:00,83.1,72.9,29.94,SSE,157,0.0,0.0,71,0.00,,,0.00,WUHU21636XXSP,2013-07-09 01:28:00,
2013-07-08 20:33:00,82.7,72.6,29.94,SSE,157,0.0,0.0,71,0.00,,,0.00,WUHU21636XXSP,2013-07-09 01:33:00,
2013-07-08 20:38:00,82.5,72.8,29.94,SSE,157,0.0,0.0,72,0.00,,,0.00,WUHU21636XXSP,2013-07-09 01:38:00,
2013-07-08 20:43:00,82.1,72.4,29.93,SSE,157,0.0,0.0,72,0.00,,,0.00,WUHU21636XXSP,2013-07-09 01:43:00,
2013-07-08 20:49:00,81.8,72.1,29.94,SSE,157,0.0,0.0,72,0.00,,,0.00,WUHU21636XXSP,2013-07-09 01:49:00,
2013-07-08 20:55:00,81.4,72.1,29.94,SSE,157,0.0,0.0,73,0.00,,,0.00,WUHU21636XXSP,2013-07-09 01:55:00,
2013-07-08 21:00:00,81.2,71.9,29.94,SSE,157,0.0,0.0,73,0.00,,,0.00,WUHU21636XXSP,2013-07-09 02:00:00,
2013-07-08 21:05:00,81.0,71.7,29.94,SSE,157,0.0,0.0,73,0.00,,,0.00,WUHU21636XXSP,2013-07-09 02:05:00,
2013-07-08 21:10:00,80.6,71.4,29.94,SSE,157,0.0,0.0,73,0.00,,,0.00,WUHU21636XXSP,2013-07-09 02:10:00,
2013-07-08 21:16:00,80.0,71.2,29.94,SSE,157,0.0,0.0,74,0.00,,,0.00,WUHU21636XXSP,2013-07-09 02:16:00,
2013-07-08 21:21:00,79.9,71.1,29.95,SSE,157,0.0,0.0,74,0.00,,,0.00,WUHU21636XXSP,2013-07-09 02:21:00,
2013-07-08 21:27:00,79.7,70.9,29.95,SSE,157,0.0,0.0,74,0.00,,,0.00,WUHU21636XXSP,2013-07-09 02:27:00,
2013-07-08 21:32:00,79.3,70.8,29.95,SSE,157,0.0,0.0,75,0.00,,,0.00,WUHU21636XXSP,2013-07-09 02:32:00,
2013-07-08 21:37:00,79.1,70.6,29.95,SSE,157,0.0,0.0,75,0.00,,,0.00,WUHU21636XXSP,2013-07-09 02:37:00,
2013-07-08 21:42:00,78.8,70.3,29.96,SSE,157,0.0,0.0,75,0.00,,,0.00,WUHU21636XXSP,2013-07-09 02:42:00,
2013-07-08 21:47:00,78.5,70.5,29.96,SSE,157,0.0,0.0,76,0.00,,,0.00,WUHU21636XXSP,2013-07-09 02:47:00,
2013-07-08 21:52:00,78.3,70.3,29.96,SSE,157,0.0,0.0,76,0.00,,,0.00,WUHU21636XXSP,2013-07-09 02:52:00,
2013-07-08 21:58:00,78.0,70.0,29.96,SSE,157,0.0,0.0,76,0.00,,,0.00,WUHU21636XXSP,2013-07-09 02:58:00,
2013-07-08 22:03:00,77.8,69.8,29.97,SSE,157,0.0,0.0,76,0.00,,,0.00,WUHU21636XXSP,2013-07-09 03:03:00,
2013-07-08 22:08:00,77.4,69.8,29.96,SSE,157,0.0,0.0,77,0.00,,,0.00,WUHU21636XXSP,2013-07-09 03:08:00,
2013-07-08 22:13:00,77.2,69.5,29.96,SSE,157,0.0,0.0,77,0.00,,,0.00,WUHU21636XXSP,2013-07-09 03:13:00,
2013-07-08 22:18:00,76.9,69.2,29.96,SSE,157,0.0,0.0,77,0.00,,,0.00,WUHU21636XXSP,2013-07-09 03:18:00,
2013-07-08 22:24:00,76.9,69.6,29.96,SSE,157,0.0,0.0,78,0.00,,,0.00,WUHU21636XXSP,2013-07-09 03:24:00,
2013-07-08 22:29:00,76.7,69.4,29.96,SSE,157,0.0,0.0,78,0.00,,,0.00,WUHU21636XXSP,2013-07-09 03:29:00,
2013-07-08 22:34:00,76.4,69.2,29.96,SSE,157,0.0,0.0,78,0.00,,,0.00,WUHU21636XXSP,2013-07-09 03:34:00,
2013-07-08 22:39:00,76.4,69.2,29.97,SSE,157,0.0,0.0,78,0.00,,,0.00,WUHU21636XXSP,2013-07-09 03:39:00,
2013-07-08 22:45:00,76.2,69.0,29.96,SSE,157,0.0,0.0,78,0.00,,,0.00,WUHU21636XXSP,2013-07-09 03:45:00,
2013-07-08 22:50:00,76.1,68.9,29.96,SSE,157,0.0,0.0,78,0.00,,,0.00,WUHU21636XXSP,2013-07-09 03:50:00,
2013-07-08 22:56:00,75.9,69.0,29.96,SSE,157,0.0,0.0,79,0.00,,,0.00,WUHU21636XXSP,2013-07-09 03:56:00,
2013-07-08 23:01:00,75.7,68.8,29.96,SSE,157,0.0,0.0,79,0.00,,,0.00,WUHU21636XXSP,2013-07-09 04:01:00,
2013-07-08 23:02:00,75.7,68.8,29.96,SSE,157,0.0,0.0,79,0.00,,,0.00,WUHU21636XXSP,2013-07-09 04:02:00,
2013-07-08 23:07:00,75.5,68.6,29.96,SSE,157,0.0,0.0,79,0.00,,,0.00,WUHU21636XXSP,2013-07-09 04:07:00,
2013-07-08 23:12:00,75.3,68.4,29.96,SSE,157,0.0,0.0,79,0.00,,,0.00,WUHU21636XXSP,2013-07-09 04:12:00,
2013-07-08 23:17:00,75.3,68.4,29.96,SSE,157,0.0,0.0,79,0.00,,,0.00,WUHU21636XXSP,2013-07-09 04:17:00,
2013-07-08 23:22:00,75.3,68.8,29.97,SSE,157,0.0,0.0,80,0.00,,,0.00,WUHU21636XXSP,2013-07-09 04:22:00,
2013-07-08 23:27:00,75.2,68.7,29.97,SSE,157,0.0,0.0,80,0.00,,,0.00,WUHU21636XXSP,2013-07-09 04:27:00,
2013-07-08 23:32:00,75.0,68.5,29.97,SSE,157,0.0,0.0,80,0.00,,,0.00,WUHU21636XXSP,2013-07-09 04:32:00,
2013-07-08 23:37:00,75.0,68.5,29.97,SSE,157,0.0,0.0,80,0.00,,,0.00,WUHU21636XXSP,2013-07-09 04:37:00,
2013-07-08 23:42:00,74.8,68.3,29.97,SSE,157,0.0,0.0,80,0.00,,,0.00,WUHU21636XXSP,2013-07-09 04:42:00,
2013-07-08 23:47:00,74.8,68.3,29.97,SSE,157,0.0,0.0,80,0.00,,,0.00,WUHU21636XXSP,2013-07-09 04:47:00,
2013-07-08 23:52:00,74.6,68.1,29.97,SSE,157,0.0,0.0,80,0.00,,,0.00,WUHU21636XXSP,2013-07-09 04:52:00,
2013-07-08 23:57:00,74.6,68.1,29.97,SSE,157,0.0,0.0,80,0.00,,,0.00,WUHU21636XXSP,2013-07-09 04:57:00,